Tracking 35331 objects as of 15-Sep-2026
HD Live streaming from Space Station
objects crossing your sky now

SITRO-AIS-65

Track SITRO-AIS-65 now!
10-day predictions
SITRO-AIS-65 is classified as:


NORAD ID: 67266
Int'l Code: 2025-313U
Launch date: December 28, 2025
Source: (TBD)
Launch site: VOSTOCHNY COSMODROME (VOSTO)

Uplink (MHz):
Downlink (MHz): 401.137
Beacon (MHz):
Mode: 2k4 GMSK_USP
Call sign: SC2353
Status: Unknown

Your satellite tracking list
Your tracking list is empty




NASA's NSSDC Master Catalog

Two Line Element Set (TLE):
1 67266U 25313U   26258.19084959  .00007817  00000-0  31711-3 0  9998
2 67266  97.3885 331.7018 0014896  51.1285 309.1279 15.24788086 39666
Source of the keplerian elements: AFSPC